Location: Beaurecueil
(43.5122°N, 5.5450°E)
Time: 12:56:28
(UTC+00:00)

CENTAUR R/B - Pass Details

Date: 18 September 2020
Orbit: 753 x 1435 km, 63.5° (Epoch: 26 October)

Event Time Altitude Azimuth Distance (km) Brightness Sun altitude
Rises 21:15:02 0° 320° (NW) 4,216 6.8 -35.6°
Reaches altitude 10° 21:17:48 10° 315° (NW) 3,323 6.0 -36.0°
Enters shadow 21:25:43 52° 243° (WSW) 1,696 3.6 -37.0°
